Location: Julian California
(33.0790°N, 116.6010°W)
Time: 00:01:42
(UTC-08:00)

Cosmos 1745 Rocket - Pass Details

Date: 19 May 2017
Orbit: 952 x 999 km, 83.0° (Epoch: 20 November)

Event Time Altitude Azimuth Distance (km) Brightness Sun altitude
Rises 20:00:20 0° 358° (N) 3,721 7.5 -4.3°
Reaches altitude 10° 20:02:55 10° 2° (N) 2,766 6.7 -4.7°
Maximum altitude 20:09:12 61° 82° (E) 1,116 4.1 -5.9°
Drops below altitude 10° 20:15:23 10° 162° (SSE) 2,728 5.9 -7.0°
Sets 20:17:55 0° 166° (SSE) 3,667 6.6 -7.5°
